Weather History for Pipestone, MN

Change the Weather History Date:

Thursday, June 27, 2013

  Actual Average Record
Temperature  
Mean Temperature 76 °F -  
Max Temperature 84 °F 78 °F 93 °F (2012)
Min Temperature 69 °F 57 °F 46 °F (2000)
Cooling Degree Days 12    
Growing Degree Days 26 (Base 50)    
Moisture  
Dew Point 57 °F    
Average Humidity 54    
Maximum Humidity 83    
Minimum Humidity 29    
Precipitation  
Precipitation 0.00 in - - ()
Sea Level Pressure  
Sea Level Pressure 29.95 in    
Wind  
Wind Speed 6 mph (NW)    
Max Wind Speed 21 mph    
Max Gust Speed 29 mph    
Visibility 10 miles    
Events Rain    
Averages and records for this station are not official NWS values.
T = Trace of Precipitation, MM = Missing Value Source: NWS Daily Summary

Daily Weather History Graph

Daily Weather History Graph

Search for Another Location

Airport:

Trip Planner

Search our weather history database for the weather conditions in past years. The results will help you decide how hot, cold, wet, or windy it might be!

Date:

Astronomy

Jun. 27, 2013 Rise Set
Actual Time 5:44 AM CDT 9:12 PM CDT
Civil Twilight 5:08 AM CDT 9:48 PM CDT
Nautical Twilight 4:20 AM CDT 10:35 PM CDT
Astronomical Twilight 3:20 AM CDT 11:36 PM CDT
Moon 11:57 PM CDT (6/27) 10:57 AM CDT (6/27)
Length of Visible Light 16h 40m
Length of Day
15h 27m
Waning Gibbous, 76% of the Moon is Illuminated
Jun 27
Waning Gibbous
Jun 29
Last Quarter
Jul 8
New
Jul 15
First Quarter
Jul 22
Full

Hourly Weather History & Observations

Time (CDT) Temp. Heat Index Dew Point Humidity Pressure Visibility Wind Dir Wind Speed Gust Speed Precip Events Conditions
12:13 AM 73.4 °F - 62.6 °F 69% 29.90 in 10.0 mi Calm Calm - N/A   Clear
12:33 AM 71.6 °F - 62.6 °F 73% 29.90 in 10.0 mi Calm Calm - N/A   Clear
12:54 AM 69.8 °F - 62.6 °F 78% 29.90 in 10.0 mi Calm Calm - N/A   Clear
1:13 AM 71.6 °F - 62.6 °F 73% 29.90 in 10.0 mi Calm Calm - N/A   Clear
1:33 AM 69.8 °F - 62.6 °F 78% 29.90 in 10.0 mi Calm Calm - N/A   Clear
1:54 AM 69.8 °F - 62.6 °F 78% 29.90 in 10.0 mi South 4.6 mph - N/A   Clear
2:13 AM 69.8 °F - 62.6 °F 78% 29.90 in 10.0 mi Calm Calm - N/A   Clear
2:33 AM 69.8 °F - 62.6 °F 78% 29.90 in 10.0 mi Calm Calm - N/A   Clear
2:53 AM 69.8 °F - 60.8 °F 73% 29.90 in 10.0 mi SW 3.5 mph - N/A   Clear
3:13 AM 69.8 °F - 62.6 °F 78% 29.90 in 10.0 mi Calm Calm - N/A   Clear
3:33 AM 69.8 °F - 62.6 °F 78% 29.91 in 10.0 mi WSW 5.8 mph - N/A   Scattered Clouds
3:54 AM 69.8 °F - 62.6 °F 78% 29.91 in 10.0 mi WNW 4.6 mph - N/A   Scattered Clouds
4:13 AM 69.8 °F - 62.6 °F 78% 29.92 in 10.0 mi West 5.8 mph - N/A   Scattered Clouds
4:33 AM 69.8 °F - 62.6 °F 78% 29.91 in 10.0 mi West 5.8 mph - N/A   Clear
4:53 AM 69.8 °F - 64.4 °F 83% 29.92 in 10.0 mi West 6.9 mph - N/A Rain Light Rain
5:13 AM 71.6 °F - 64.4 °F 78% 29.92 in 10.0 mi NNW 9.2 mph - N/A   Mostly Cloudy
5:33 AM 71.6 °F - 64.4 °F 78% 29.93 in 10.0 mi NW 9.2 mph - N/A   Scattered Clouds
5:53 AM 69.8 °F - 64.4 °F 83% 29.94 in 10.0 mi NW 8.1 mph - N/A   Scattered Clouds
6:13 AM 71.6 °F - 64.4 °F 78% 29.93 in 10.0 mi NNW 8.1 mph - N/A   Scattered Clouds
6:33 AM 71.6 °F - 64.4 °F 78% 29.94 in 10.0 mi NNW 9.2 mph - N/A   Clear
6:53 AM 71.6 °F - 64.4 °F 78% 29.94 in 10.0 mi NW 6.9 mph - N/A   Scattered Clouds
7:13 AM 71.6 °F - 64.4 °F 78% 29.94 in 10.0 mi NNW 6.9 mph - N/A   Clear
7:33 AM 71.6 °F - 64.4 °F 78% 29.94 in 10.0 mi North 8.1 mph - N/A   Clear
7:53 AM 73.4 °F - 62.6 °F 69% 29.95 in 10.0 mi NNW 8.1 mph - N/A   Clear
8:13 AM 73.4 °F - 62.6 °F 69% 29.94 in 10.0 mi NNW 9.2 mph - N/A   Clear
8:33 AM 75.2 °F - 60.8 °F 61% 29.95 in 10.0 mi NNW 5.8 mph - N/A   Clear
8:53 AM 75.2 °F - 60.8 °F 61% 29.94 in 10.0 mi NNW 8.1 mph - N/A   Clear
9:13 AM 77.0 °F - 57.2 °F 50% 29.94 in 10.0 mi NNW 10.4 mph - N/A   Clear
9:33 AM 77.0 °F - 57.2 °F 50% 29.95 in 10.0 mi NNW 4.6 mph - N/A   Clear
9:53 AM 78.8 °F - 53.6 °F 42% 29.96 in 10.0 mi NNW 13.8 mph 20.7 mph N/A   Clear
10:13 AM 77.0 °F - 55.4 °F 47% 29.97 in 10.0 mi NW 11.5 mph - N/A   Clear
10:33 AM 77.0 °F - 59.0 °F 54% 29.98 in 10.0 mi NW 6.9 mph - N/A   Clear
10:53 AM 77.0 °F - 59.0 °F 54% 29.98 in 10.0 mi NW 9.2 mph - N/A   Clear
11:13 AM 78.8 °F - 59.0 °F 51% 29.98 in 10.0 mi NW 10.4 mph - N/A   Clear
11:33 AM 78.8 °F - 57.2 °F 47% 29.99 in 10.0 mi NW 11.5 mph 17.3 mph N/A   Clear
11:53 AM 80.6 °F 80.5 °F 55.4 °F 42% 29.99 in 10.0 mi NW 13.8 mph 18.4 mph N/A   Clear
12:13 PM 80.6 °F 80.5 °F 55.4 °F 42% 29.99 in 10.0 mi WNW 15.0 mph - N/A   Clear
12:33 PM 80.6 °F - 51.8 °F 37% 29.99 in 10.0 mi NW 11.5 mph 20.7 mph N/A   Clear
12:53 PM 82.4 °F - 51.8 °F 35% 29.99 in 10.0 mi NNW 16.1 mph 20.7 mph N/A   Clear
1:13 PM 82.4 °F - 51.8 °F 35% 29.99 in 10.0 mi North 10.4 mph 21.9 mph N/A   Clear
1:33 PM 80.6 °F - 51.8 °F 37% 29.99 in 10.0 mi NW 15.0 mph 23.0 mph N/A   Clear
1:54 PM 82.4 °F 81.4 °F 53.6 °F 37% 29.99 in 10.0 mi NW 9.2 mph 13.8 mph N/A   Clear
2:13 PM 82.4 °F - 51.8 °F 35% 29.98 in 10.0 mi NW 11.5 mph 17.3 mph N/A   Clear
2:33 PM 82.4 °F - 51.8 °F 35% 29.98 in 10.0 mi NNW 11.5 mph 24.2 mph N/A   Clear
2:53 PM 84.2 °F - 51.8 °F 33% 29.98 in 10.0 mi NW 12.7 mph 25.3 mph N/A   Clear
3:13 PM 84.2 °F - 48.2 °F 29% 29.98 in 10.0 mi NNW 18.4 mph 28.8 mph N/A   Clear
3:33 PM 84.2 °F - 48.2 °F 29% 29.98 in 10.0 mi NW 13.8 mph 24.2 mph N/A   Clear
3:53 PM 84.2 °F - 48.2 °F 29% 29.97 in 10.0 mi NNW 16.1 mph 26.5 mph N/A   Clear
4:13 PM 84.2 °F - 50.0 °F 30% 29.97 in 10.0 mi NNW 20.7 mph 27.6 mph N/A   Clear
4:33 PM 84.2 °F - 50.0 °F 30% 29.97 in 10.0 mi NNW 18.4 mph 23.0 mph N/A   Clear
4:53 PM 84.2 °F - 51.8 °F 33% 29.96 in 10.0 mi NNW 18.4 mph 26.5 mph N/A   Clear
5:13 PM 84.2 °F - 51.8 °F 33% 29.97 in 10.0 mi NW 16.1 mph - N/A   Clear
5:33 PM 84.2 °F 82.8 °F 53.6 °F 35% 29.96 in 10.0 mi NW 16.1 mph 23.0 mph N/A   Clear
5:53 PM 84.2 °F 82.8 °F 53.6 °F 35% 29.95 in 10.0 mi NW 10.4 mph 19.6 mph N/A   Scattered Clouds
6:13 PM 84.2 °F 82.8 °F 53.6 °F 35% 29.95 in 10.0 mi NW 13.8 mph 21.9 mph N/A   Scattered Clouds
6:33 PM 84.2 °F - 48.2 °F 29% 29.95 in 10.0 mi NW 18.4 mph 27.6 mph N/A   Clear
6:53 PM 84.2 °F - 48.2 °F 29% 29.95 in 10.0 mi NW 16.1 mph 26.5 mph N/A   Clear
7:14 PM 84.2 °F - 50.0 °F 30% 29.94 in 10.0 mi NNW 13.8 mph 19.6 mph N/A   Clear
7:33 PM 84.2 °F - 51.8 °F 33% 29.94 in 10.0 mi NW 11.5 mph 19.6 mph N/A   Clear
7:53 PM 82.4 °F 81.4 °F 53.6 °F 37% 29.94 in 10.0 mi NW 10.4 mph 17.3 mph N/A   Clear
8:14 PM 82.4 °F 81.7 °F 55.4 °F 39% 29.93 in 10.0 mi NW 6.9 mph - N/A   Clear
8:33 PM 80.6 °F 80.5 °F 55.4 °F 42% 29.93 in 10.0 mi NW 9.2 mph - N/A   Clear
8:53 PM 78.8 °F - 57.2 °F 47% 29.92 in 10.0 mi NW 6.9 mph - N/A   Clear
9:13 PM 77.0 °F - 57.2 °F 50% 29.92 in 10.0 mi WNW 4.6 mph - N/A   Clear
9:33 PM 75.2 °F - 57.2 °F 53% 29.92 in 10.0 mi WNW 5.8 mph - N/A   Clear
9:53 PM 75.2 °F - 59.0 °F 57% 29.92 in 10.0 mi NW 4.6 mph - N/A   Clear
10:13 PM 75.2 °F - 59.0 °F 57% 29.93 in 10.0 mi NW 5.8 mph - N/A   Clear
10:33 PM 75.2 °F - 59.0 °F 57% 29.94 in 10.0 mi NW 6.9 mph - N/A   Clear
10:53 PM 75.2 °F - 59.0 °F 57% 29.94 in 10.0 mi NNW 6.9 mph - N/A   Clear
11:13 PM 73.4 °F - 57.2 °F 57% 29.95 in 10.0 mi North 9.2 mph - N/A   Clear
11:33 PM 73.4 °F - 55.4 °F 53% 29.95 in 10.0 mi NNW 6.9 mph - N/A   Clear
11:54 PM 73.4 °F - 55.4 °F 53% 29.96 in 10.0 mi NNW 5.8 mph - N/A   Clear